Showing default

IRIDIUM 122, 42957

Orbit data source: Space-Track

IRIDIUM 122, 42957 is a payload satellite owned by Iridium (US) in LEO that was launched on Mon, 09 Oct 2017 UTC via an FALCON 9 launch vehicle from the Air Force Western Test Range (AFWTR). Payload-class satellites include a variety of spacecraft equipped with specific instruments for various scientific and technological missions. These include communications satellites like Starlink; space stations such as the ISS; scientific satellites like the Hubble; Earth observation satellites from companies like Planet Labs, Umbra, and HawkEye 360; GPS; miniature CubeSats for education and research; and military/defense satellites.

Loading next visibility...
Identifier
42957, 2017-061C
Orbit
LEO
Country
Flag of USUS
Related business
Manufacturer
OATK SSG Gilbert
Mission
Operational Commercial Communications
Bus & Motor
ELITEBUS, Unknown motor
Mass
860 kg wet, 700 kg dry
Launch date (UTC)
2017-10-09 (8 years ago)
Launch vehicle
FALCON 9
Launch site
Air Force Western Test Range (AFWTR)
Object type
Payload
Rocket body
Debris
Shape & HBR
Trap Box + 2 Pan, 4.8 m
Radar Cross Section
10.154 m², Large (>1 m²)

Expand to show TLE details & history
Last TLE update: 8 hours ago

TLE from 8 hours ago
0 IRIDIUM 122
1 42957U 17061C   26038.15429082  .00000123  00000-0  36715-4 0  9994
2 42957  86.3919  79.5655 0002272  90.7029 269.4428 14.34217857436147
Epoch: 2026-02-07T03:42Z
TLE epoch observation values (Epoch: 2026-02-07T03:42:10.726Z)
Latitude
0.00004°
Longitude
-113.26108°
Altitude
780.734 km
Speed
7.463 km/s
True Right ascension
05h 18m 15s
True Declination
0° 00' 00"
Sunlit
Object was in full shadow at epoch
Visualization orbit readout
Latitude
Unknown
Longitude
Unknown
Altitude
Unknown
Speed
Unknown
Apparent Right ascension
Unknown
Apparent Declination
Unknown
Sunlit
N/A
Visualization observer readout
Local Sidereal Time
14:04:26
Azimuth
Unknown
Elevation
Unknown
Doppler factor
Unknown
Orbital elements
Apogee altitude
776.256 km
Perigee altitude
773.006 km
Semi-major axis
7,152.768 km
Eccentricity
0.00023
Inclination
86.3919°
RAAN
79.5655°
Arg. of periapsis
90.7029°
True anomaly
269.41677°
Mean anomaly
269.4428°
Eccentric anomaly
269.42978°
Mean motion
3.58783 °/min
Orbital period
100.34 mins
BSTAR
0.000036715
Loading maneuver chart data...
Computing Atmospheric mass density...
Loading historical data...
Loading historical data...
Loading historical data...
Loading historical data...
Loading historical data...
Loading historical data...
Loading historical data...

Documentation

Showing up to 5 results
|